When you browse on this site, cookies collect data to enhance your experience and personalize the content and advertising you see.
Visit our Privacy Policy to learn more. By continuing to use the site, you agree to this use of cookies and data.
  • In Belgium
  • List of Countries
  • For 7 days
  • Water Temperature
  • Weather Map
  • Weather Widgets
  • user-avatar
    Login

    Hourly Weather Kaposvar

    Today, 6 April, Monday

    Time Temperature Precipitation Wind Pressure Humidity
    00:00 +8°C° 0 mm 3 mps 756 mmHg 75%
    01:00 +8°C° 0 mm 3 mps 756 mmHg 75%
    02:00 +7°C° 0 mm 2 mps 756 mmHg 77%
    03:00 +7°C° 0 mm 2 mps 756 mmHg 79%
    04:00 +7°C° 0 mm 2 mps 756 mmHg 80%
    05:00 +7°C° 0 mm 3 mps 756 mmHg 72%
    06:00 +7°C° 0 mm 4 mps 757 mmHg 63%
    07:00 +8°C° 0 mm 4 mps 757 mmHg 54%
    08:00 +10°C° 0 mm 5 mps 758 mmHg 49%
    09:00 +12°C° 0 mm 5 mps 758 mmHg 44%
    10:00 +13°C° 0 mm 6 mps 758 mmHg 39%
    11:00 +14°C° 0 mm 6 mps 758 mmHg 38%
    12:00 +15°C° 0 mm 6 mps 758 mmHg 36%
    13:00 +16°C° 0 mm 6 mps 758 mmHg 34%
    14:00 +15°C° 0 mm 6 mps 758 mmHg 34%
    15:00 +15°C° 0 mm 6 mps 758 mmHg 35%
    16:00 +15°C° 0 mm 6 mps 757 mmHg 35%
    17:00 +13°C° 0 mm 5 mps 758 mmHg 40%
    18:00 +11°C° 0 mm 4 mps 758 mmHg 44%
    19:00 +9°C° 0 mm 3 mps 758 mmHg 49%
    20:00 +9°C° 0 mm 3 mps 758 mmHg 50%
    21:00 +8°C° 0 mm 2 mps 759 mmHg 51%
    22:00 +7°C° 0 mm 2 mps 759 mmHg 52%
    23:00 +7°C° 0 mm 2 mps 759 mmHg 53%

    Tomorrow, 7 April, Tuesday

    Time Temperature Precipitation Wind Pressure Humidity
    00:00 +6°C° 0 mm 2 mps 759 mmHg 53%
    01:00 +5°C° 0 mm 3 mps 759 mmHg 54%
    02:00 +4°C° 0 mm 3 mps 759 mmHg 54%
    03:00 +4°C° 0 mm 3 mps 759 mmHg 54%
    04:00 +4°C° 0 mm 3 mps 760 mmHg 54%
    05:00 +4°C° 0 mm 3 mps 760 mmHg 51%
    06:00 +5°C° 0 mm 4 mps 760 mmHg 49%
    07:00 +6°C° 0 mm 4 mps 760 mmHg 47%
    08:00 +8°C° 0 mm 4 mps 760 mmHg 42%
    09:00 +10°C° 0 mm 5 mps 760 mmHg 37%
    10:00 +13°C° 0 mm 5 mps 761 mmHg 32%
    11:00 +14°C° 0 mm 5 mps 760 mmHg 31%
    12:00 +15°C° 0 mm 5 mps 760 mmHg 30%
    13:00 +16°C° 0 mm 5 mps 760 mmHg 30%
    14:00 +16°C° 0 mm 5 mps 759 mmHg 31%
    15:00 +16°C° 0 mm 5 mps 759 mmHg 33%
    16:00 +17°C° 0 mm 4 mps 759 mmHg 35%
    17:00 +14°C° 0 mm 3 mps 759 mmHg 41%
    18:00 +12°C° 0 mm 3 mps 758 mmHg 48%
    19:00 +10°C° 0 mm 2 mps 758 mmHg 54%
    20:00 +10°C° 0 mm 1 mps 759 mmHg 56%
    21:00 +9°C° 0 mm 1 mps 759 mmHg 57%
    22:00 +8°C° 0 mm 1 mps 759 mmHg 58%
    23:00 +8°C° 0 mm 1 mps 759 mmHg 58%

    Day after tomorrow, 8 April, Wednesday

    Time Temperature Precipitation Wind Pressure Humidity
    00:00 +8°C° 0 mm 1 mps 759 mmHg 58%
    01:00 +7°C° 0 mm 1 mps 759 mmHg 58%
    02:00 +7°C° 0 mm 1 mps 759 mmHg 57%
    03:00 +7°C° 0 mm 1 mps 759 mmHg 56%
    04:00 +7°C° 0 mm 1 mps 759 mmHg 56%
    05:00 +8°C° 0 mm 1 mps 759 mmHg 54%
    06:00 +9°C° 0 mm 1 mps 758 mmHg 53%
    07:00 +10°C° 0 mm 1 mps 758 mmHg 51%
    08:00 +12°C° 0 mm 1 mps 758 mmHg 46%
    09:00 +14°C° 0 mm 2 mps 758 mmHg 41%
    10:00 +16°C° 0 mm 2 mps 758 mmHg 35%
    11:00 +17°C° 0 mm 2 mps 757 mmHg 34%
    12:00 +17°C° 0 mm 2 mps 757 mmHg 34%
    13:00 +18°C° 0 mm 2 mps 756 mmHg 33%
    14:00 +18°C° 0 mm 2 mps 756 mmHg 34%
    15:00 +18°C° 0 mm 2 mps 755 mmHg 34%
    16:00 +18°C° 0 mm 2 mps 755 mmHg 35%
    17:00 +16°C° 0 mm 2 mps 754 mmHg 40%
    18:00 +14°C° 0 mm 1 mps 754 mmHg 46%
    19:00 +12°C° 0 mm 1 mps 754 mmHg 51%
    20:00 +12°C° 0 mm 1 mps 754 mmHg 52%
    21:00 +11°C° 0 mm 1 mps 754 mmHg 53%
    22:00 +10°C° 0 mm 1 mps 754 mmHg 53%
    23:00 +9°C° 0 mm 0 mps 754 mmHg 55%

    9 April, Thursday

    Time Temperature Precipitation Wind Pressure Humidity
    00:00 +8°C° 0 mm 0 mps 754 mmHg 57%
    01:00 +8°C° 0 mm 0 mps 754 mmHg 59%
    02:00 +7°C° 0 mm 0 mps 753 mmHg 60%
    03:00 +7°C° 0 mm 0 mps 753 mmHg 61%
    04:00 +7°C° 0 mm 0 mps 753 mmHg 61%
    05:00 +8°C° 0 mm 0 mps 753 mmHg 59%
    06:00 +9°C° 0 mm 0 mps 753 mmHg 57%
    07:00 +10°C° 0 mm 0 mps 753 mmHg 55%
    08:00 +12°C° 0 mm 0 mps 753 mmHg 49%
    09:00 +15°C° 0 mm 0 mps 753 mmHg 43%
    10:00 +19°C° 0 mm 1 mps 753 mmHg 37%
    11:00 +20°C° 0 mm 1 mps 753 mmHg 35%
    12:00 +20°C° 0 mm 1 mps 752 mmHg 33%
    13:00 +21°C° 0 mm 1 mps 752 mmHg 31%
    14:00 +21°C° 0 mm 1 mps 751 mmHg 31%
    15:00 +21°C° 0 mm 1 mps 751 mmHg 31%
    16:00 +21°C° 0 mm 1 mps 750 mmHg 32%
    17:00 +19°C° 0 mm 1 mps 750 mmHg 38%
    18:00 +16°C° 0 mm 1 mps 750 mmHg 44%
    19:00 +14°C° 0 mm 1 mps 750 mmHg 50%
    20:00 +13°C° 0 mm 1 mps 750 mmHg 52%
    21:00 +12°C° 0 mm 1 mps 751 mmHg 54%
    22:00 +12°C° 0 mm 1 mps 751 mmHg 56%
    23:00 +11°C° 0 mm 1 mps 751 mmHg 57%

    10 April, Friday

    Time Temperature Precipitation Wind Pressure Humidity
    00:00 +11°C° 0 mm 1 mps 751 mmHg 59%
    01:00 +10°C° 0 mm 2 mps 751 mmHg 60%
    02:00 +9°C° 0 mm 2 mps 751 mmHg 61%
    03:00 +9°C° 0 mm 2 mps 751 mmHg 62%
    04:00 +9°C° 0 mm 2 mps 751 mmHg 62%
    05:00 +10°C° 0 mm 2 mps 751 mmHg 61%
    06:00 +12°C° 0 mm 2 mps 752 mmHg 59%
    07:00 +13°C° 0 mm 2 mps 752 mmHg 58%
    08:00 +15°C° 0 mm 2 mps 752 mmHg 54%
    09:00 +17°C° 0 mm 2 mps 752 mmHg 51%
    10:00 +20°C° 0 mm 3 mps 752 mmHg 47%
    11:00 +20°C° 0 mm 3 mps 752 mmHg 45%
    12:00 +21°C° 0 mm 3 mps 751 mmHg 43%
    13:00 +22°C° 0 mm 3 mps 751 mmHg 41%
    14:00 +22°C° 0 mm 3 mps 751 mmHg 43%
    15:00 +21°C° 0 mm 3 mps 751 mmHg 44%
    16:00 +21°C° 0 mm 2 mps 750 mmHg 45%
    17:00 +19°C° 0 mm 2 mps 750 mmHg 51%
    18:00 +18°C° 0 mm 1 mps 750 mmHg 57%
    19:00 +16°C° 0 mm 1 mps 750 mmHg 63%
    20:00 +14°C° 0 mm 0 mps 750 mmHg 65%
    21:00 +13°C° 0 mm 0 mps 751 mmHg 67%
    22:00 +13°C° 0 mm 0 mps 751 mmHg 69%
    23:00 +12°C° 0 mm 0 mps 751 mmHg 70%

    11 April, Saturday

    Time Temperature Precipitation Wind Pressure Humidity
    00:00 +12°C° 0 mm 0 mps 751 mmHg 72%
    01:00 +11°C° 0 mm 0 mps 751 mmHg 73%
    02:00 +11°C° 0 mm 0 mps 751 mmHg 74%
    03:00 +11°C° 0 mm 0 mps 751 mmHg 75%
    04:00 +12°C° 0 mm 1 mps 751 mmHg 76%
    05:00 +12°C° 0 mm 1 mps 751 mmHg 74%
    06:00 +13°C° 0 mm 1 mps 751 mmHg 71%
    07:00 +14°C° 0 mm 1 mps 751 mmHg 69%
    08:00 +16°C° 0 mm 1 mps 751 mmHg 62%
    09:00 +18°C° 0 mm 2 mps 751 mmHg 55%
    10:00 +21°C° 0 mm 2 mps 751 mmHg 48%
    11:00 +21°C° 0 mm 2 mps 751 mmHg 44%
    12:00 +23°C° 0 mm 2 mps 750 mmHg 41%
    13:00 +24°C° 0 mm 2 mps 750 mmHg 37%
    14:00 +24°C° 0 mm 2 mps 750 mmHg 37%
    15:00 +24°C° 0 mm 2 mps 749 mmHg 38%
    16:00 +24°C° 0 mm 2 mps 749 mmHg 38%
    17:00 +21°C° 0 mm 2 mps 749 mmHg 44%
    18:00 +19°C° 0 mm 2 mps 749 mmHg 50%
    19:00 +17°C° 0 mm 2 mps 749 mmHg 55%
    20:00 +16°C° 0 mm 2 mps 749 mmHg 56%
    21:00 +15°C° 0 mm 2 mps 749 mmHg 56%
    22:00 +15°C° 0 mm 2 mps 750 mmHg 57%
    23:00 +14°C° 0 mm 2 mps 750 mmHg 59%
    Show more